User: anonymous   Login
Location: Unspecified
(0.0000°N, 0.0000°E)
Time: 01:52:43
(UTC+00:00)
Language:

STARLINK-31513 - Orbit

View from above orbital plane
View from above orbital plane
View from above satellite
View from above satellite

Ground track
Ground track

The orbit is defined by the following mean orbital elements,

1 59529U          26144.74055147 +.00000000 +00000-0 +54918-4 0 00004
2 59529  43.0034 245.2831 0001603 273.6707  86.3962 15.27581684    04
Epoch (UTC): 24 May 2026 17:46:23
Eccentricity: 0.0001603
inclination: 43.0034°
perigee height: 482 km
apogee height: 484 km
right ascension of ascending node: 245.2831°
argument of perigee: 273.6707°
revolutions per day: 15.27581684
mean anomaly at epoch: 86.3962°

The dashed part of the orbit path shows where the satellite is in the earth's shadow,  

DLR